| time (UTC) | temp F | wind direction | speed MPH | gust MPH | rain 1hr in | rain 24hr in | rain mn in | humidity % | barometer mb |
| 20260509033028 | 55 | 185 | 4.0 | 10.0 | 0.03 | 0.24 | 0.24 | 88 | 1005.7 |
| 20260509031627 | 55 | 175 | 2.0 | 7.0 | 0.02 | 0.23 | 0.23 | 88 | 1005.8 |
| 20260509030027 | 55 | 198 | 4.0 | 8.0 | 0.02 | 0.22 | 0.22 | 88 | 1005.9 |
| 20260509024528 | 55 | 212 | 2.0 | 9.0 | 0.01 | 0.21 | 0.21 | 88 | 1006.0 |
| 20260509023028 | 55 | 257 | 3.0 | 9.0 | 0.01 | 0.21 | 0.21 | 88 | 1006.0 |
| 20260509021524 | 55 | 186 | 4.0 | 11.0 | 0.02 | 0.21 | 0.21 | 88 | 1006.0 |
| 20260509020023 | 55 | 236 | 5.0 | 11.0 | 0.01 | 0.20 | 0.20 | 87 | 1005.9 |
| 20260509014522 | 55 | 171 | 5.0 | 14.0 | 0.01 | 0.20 | 0.20 | 87 | 1005.9 |
| 20260509013023 | 55 | 206 | 2.0 | 9.0 | 0.00 | 0.19 | 0.19 | 87 | 1005.8 |
| 20260509011521 | 55 | 183 | 1.0 | 6.0 | 0.01 | 0.19 | 0.19 | 87 | 1005.9 |
| 20260509010024 | 55 | 194 | 3.0 | 9.0 | 0.03 | 0.19 | 0.19 | 87 | 1005.7 |
| 20260509004531 | 55 | 197 | 3.0 | 7.0 | 0.03 | 0.19 | 0.19 | 87 | 1005.8 |
| 20260509003021 | 54 | 196 | 2.0 | 10.0 | 0.03 | 0.19 | 0.19 | 87 | 1005.9 |
| 20260509001520 | 54 | 186 | 2.0 | 7.0 | 0.04 | 0.18 | 0.18 | 87 | 1006.0 |
| 20260509000019 | 54 | 180 | 1.0 | 6.0 | 0.03 | 0.16 | 0.16 | 88 | 1006.0 |
| 20260508234516 | 54 | 208 | 0.0 | 8.0 | 0.04 | 0.16 | 0.16 | 88 | 1006.1 |
| 20260508233016 | 55 | 192 | 4.0 | 9.0 | 0.06 | 0.16 | 0.16 | 88 | 1006.1 |
| 20260508231515 | 55 | 181 | 3.0 | 8.0 | 0.06 | 0.14 | 0.14 | 88 | 1006.2 |
| 20260508230015 | 55 | 191 | 1.0 | 6.0 | 0.08 | 0.13 | 0.13 | 88 | 1006.3 |
| 20260508224514 | 55 | 198 | 0.0 | 5.0 | 0.10 | 0.12 | 0.12 | 88 | 1006.2 |
| 20260508223013 | 55 | 277 | 0.0 | 4.0 | 0.09 | 0.10 | 0.10 | 88 | 1006.3 |
| 20260508221513 | 55 | 277 | 1.0 | 5.0 | 0.08 | 0.08 | 0.08 | 88 | 1006.6 |
| 20260508220012 | 56 | 288 | 3.0 | 9.0 | 0.05 | 0.05 | 0.05 | 87 | 1006.5 |
| 20260508214510 | 56 | 282 | 4.0 | 12.0 | 0.02 | 0.02 | 0.02 | 86 | 1006.6 |
| 20260508213015 | 57 | 304 | 7.0 | 14.0 | 0.01 | 0.01 | 0.01 | 82 | 1006.2 |
| 20260508211506 | 61 | 295 | 4.0 | 8.0 | 0.00 | 0.00 | 0.00 | 71 | 1006.0 |
| 20260508210009 | 63 | 209 | 0.0 | 2.0 | 0.00 | 0.00 | 0.00 | 65 | 1005.6 |
| 20260508204507 | 63 | 209 | 0.0 | 2.0 | 0.00 | 0.00 | 0.00 | 64 | 1005.7 |
| 20260508203007 | 62 | 209 | 0.0 | 2.0 | 0.00 | 0.00 | 0.00 | 60 | 1006.0 |
| 20260508201600 | 62 | 209 | 0.0 | 4.0 | 0.00 | 0.00 | 0.00 | 59 | 1006.3 |
| 20260508200059 | 62 | 216 | 1.0 | 10.0 | 0.00 | 0.00 | 0.00 | 58 | 1006.4 |
| 20260508194657 | 62 | 199 | 2.0 | 7.0 | 0.00 | 0.00 | 0.00 | 57 | 1006.7 |
| 20260508193110 | 62 | 209 | 3.0 | 10.0 | 0.00 | 0.00 | 0.00 | 57 | 1006.9 |
| 20260508191558 | 62 | 217 | 2.0 | 6.0 | 0.00 | 0.00 | 0.00 | 57 | 1007.1 |
| 20260508190106 | 62 | 220 | 3.0 | 8.0 | 0.00 | 0.00 | 0.00 | 57 | 1007.3 |
| 20260508184555 | 62 | 207 | 3.0 | 8.0 | 0.00 | 0.00 | 0.00 | 55 | 1007.5 |
| 20260508183109 | 62 | 193 | 4.0 | 11.0 | 0.00 | 0.00 | 0.00 | 55 | 1007.5 |
| 20260508181551 | 63 | 213 | 6.0 | 10.0 | 0.00 | 0.00 | 0.00 | 53 | 1007.7 |
| 20260508180059 | 63 | 234 | 5.0 | 14.0 | 0.00 | 0.00 | 0.00 | 52 | 1007.5 |
| 20260508174603 | 64 | 196 | 7.0 | 10.0 | 0.00 | 0.00 | 0.00 | 50 | 1007.5 |
| 20260508173046 | 64 | 248 | 7.0 | 11.0 | 0.00 | 0.00 | 0.00 | 51 | 1007.6 |
| 20260508171544 | 64 | 205 | 5.0 | 12.0 | 0.00 | 0.00 | 0.00 | 51 | 1008.0 |
| 20260508170045 | 64 | 177 | 6.0 | 13.0 | 0.00 | 0.00 | 0.00 | 51 | 1008.2 |
| 20260508164545 | 63 | 211 | 4.0 | 10.0 | 0.00 | 0.00 | 0.00 | 53 | 1008.6 |
| 20260508163037 | 62 | 194 | 4.0 | 12.0 | 0.00 | 0.00 | 0.00 | 53 | 1008.9 |
| 20260508161533 | 62 | 232 | 3.0 | 10.0 | 0.00 | 0.00 | 0.00 | 55 | 1009.1 |
| 20260508160035 | 63 | 233 | 3.0 | 7.0 | 0.00 | 0.00 | 0.00 | 55 | 1009.1 |
| 20260508154529 | 62 | 148 | 4.0 | 8.0 | 0.00 | 0.00 | 0.00 | 55 | 1009.3 |
| 20260508153035 | 61 | 219 | 3.0 | 9.0 | 0.00 | 0.00 | 0.00 | 56 | 1009.4 |
| 20260508151527 | 61 | 269 | 4.0 | 16.0 | 0.00 | 0.00 | 0.00 | 55 | 1009.3 |
| 20260508150029 | 62 | 227 | 4.0 | 9.0 | 0.00 | 0.00 | 0.00 | 55 | 1009.4 |
| 20260508144527 | 61 | 220 | 3.0 | 11.0 | 0.00 | 0.00 | 0.00 | 56 | 1009.5 |
| 20260508143020 | 60 | 240 | 5.0 | 11.0 | 0.00 | 0.00 | 0.00 | 57 | 1009.8 |
| 20260508141515 | 59 | 209 | 3.0 | 9.0 | 0.00 | 0.00 | 0.00 | 57 | 1009.8 |
| 20260508140020 | 58 | 85 | 4.0 | 10.0 | 0.00 | 0.00 | 0.00 | 58 | 1010.0 |
| 20260508134507 | 57 | 225 | 4.0 | 9.0 | 0.00 | 0.00 | 0.00 | 60 | 1010.1 |
| 20260508133002 | 56 | 209 | 4.0 | 9.0 | 0.00 | 0.00 | 0.00 | 61 | 1010.2 |
| 20260508131607 | 55 | 217 | 2.0 | 7.0 | 0.00 | 0.00 | 0.00 | 62 | 1010.3 |
| 20260508130054 | 54 | 213 | 3.0 | 6.0 | 0.00 | 0.00 | 0.00 | 61 | 1010.2 |
| 20260508124549 | 53 | 200 | 1.0 | 5.0 | 0.00 | 0.00 | 0.00 | 63 | 1010.5 |
| 20260508123052 | 52 | 169 | 0.0 | 4.0 | 0.00 | 0.00 | 0.00 | 67 | 1010.6 |
| 20260508121540 | 50 | 169 | 1.0 | 3.0 | 0.00 | 0.00 | 0.00 | 77 | 1010.5 |
| 20260508120047 | 48 | 171 | 0.0 | 4.0 | 0.00 | 0.00 | 0.00 | 79 | 1010.6 |
| 20260508114540 | 48 | 171 | 0.0 | 2.0 | 0.00 | 0.00 | 0.00 | 76 | 1010.6 |
| 20260508113031 | 48 | 171 | 0.0 | 2.0 | 0.00 | 0.00 | 0.00 | 73 | 1010.5 |
| 20260508111529 | 48 | 168 | 1.0 | 4.0 | 0.00 | 0.00 | 0.00 | 71 | 1010.2 |
| 20260508110024 | 49 | 212 | 1.0 | 6.0 | 0.00 | 0.00 | 0.00 | 67 | 1010.4 |
| 20260508104521 | 49 | 287 | 5.0 | 8.0 | 0.00 | 0.00 | 0.00 | 64 | 1010.3 |
| 20260508103022 | 50 | 189 | 2.0 | 7.0 | 0.00 | 0.00 | 0.00 | 64 | 1009.8 |
| 20260508101516 | 50 | 207 | 2.0 | 7.0 | 0.00 | 0.00 | 0.00 | 63 | 1009.8 |
| 20260508100015 | 50 | 190 | 1.0 | 8.0 | 0.00 | 0.00 | 0.00 | 63 | 1009.6 |
| 20260508094511 | 50 | 190 | 1.0 | 6.0 | 0.00 | 0.00 | 0.00 | 65 | 1009.8 |
| 20260508093010 | 50 | 186 | 2.0 | 6.0 | 0.00 | 0.00 | 0.00 | 65 | 1009.9 |
| 20260508091513 | 51 | 182 | 2.0 | 5.0 | 0.00 | 0.00 | 0.00 | 65 | 1010.0 |
| 20260508090009 | 51 | 212 | 1.0 | 4.0 | 0.00 | 0.00 | 0.00 | 63 | 1010.1 |
| 20260508084504 | 51 | 215 | 1.0 | 5.0 | 0.00 | 0.00 | 0.00 | 65 | 1010.3 |
| 20260508083003 | 51 | 215 | 1.0 | 5.0 | 0.00 | 0.00 | 0.00 | 66 | 1010.4 |
| 20260508081509 | 51 | 232 | 1.0 | 5.0 | 0.00 | 0.00 | 0.00 | 65 | 1010.6 |
| 20260508080002 | 51 | 217 | 2.0 | 6.0 | 0.00 | 0.00 | 0.00 | 63 | 1010.6 |
| 20260508074501 | 51 | 207 | 2.0 | 5.0 | 0.00 | 0.00 | 0.00 | 62 | 1010.5 |
| 20260508073100 | 51 | 213 | 1.0 | 5.0 | 0.00 | 0.00 | 0.00 | 61 | 1010.4 |
| 20260508071604 | 51 | 202 | 2.0 | 7.0 | 0.00 | 0.00 | 0.00 | 60 | 1010.3 |
| 20260508070058 | 51 | 196 | 3.0 | 8.0 | 0.00 | 0.00 | 0.00 | 61 | 1010.5 |
| 20260508064555 | 51 | 200 | 2.0 | 7.0 | 0.00 | 0.00 | 0.00 | 61 | 1010.7 |
| 20260508063104 | 51 | 220 | 2.0 | 7.0 | 0.00 | 0.00 | 0.00 | 62 | 1010.9 |
| 20260508061555 | 51 | 208 | 1.0 | 5.0 | 0.00 | 0.00 | 0.00 | 63 | 1010.8 |
| 20260508060054 | 51 | 208 | 1.0 | 7.0 | 0.00 | 0.00 | 0.00 | 61 | 1010.8 |
| 20260508054553 | 51 | 184 | 2.0 | 6.0 | 0.00 | 0.00 | 0.00 | 62 | 1010.8 |
| 20260508053104 | 51 | 178 | 2.0 | 6.0 | 0.00 | 0.00 | 0.00 | 62 | 1010.7 |
| 20260508051552 | 51 | 186 | 1.0 | 6.0 | 0.00 | 0.00 | 0.00 | 63 | 1010.9 |
| 20260508050050 | 51 | 179 | 2.0 | 5.0 | 0.00 | 0.00 | 0.00 | 64 | 1010.8 |
| 20260508044549 | 51 | 181 | 2.0 | 6.0 | 0.00 | 0.00 | 0.00 | 65 | 1010.8 |
| 20260508043057 | 51 | 186 | 3.0 | 6.0 | 0.00 | 0.00 | 0.00 | 65 | 1010.7 |
| 20260508041550 | 50 | 209 | 2.0 | 7.0 | 0.00 | 0.00 | 0.00 | 67 | 1010.8 |
| 20260508040041 | 50 | 193 | 3.0 | 6.0 | 0.00 | 0.00 | 0.00 | 69 | 1010.7 |
| 20260508034540 | 50 | 186 | 3.0 | 9.0 | 0.00 | 0.00 | 0.00 | 71 | 1010.7 |